Flag for U.S.A. Weather past 2 weeks in New City, New York, U.S.A.

Now
65 °F

Clear.


Feels Like: 65 °F
Forecast: 62 / 71 °F
Wind: 3 mph from East

Location: Westchester County Airport

Current Time: Jul 4, 2015 at 6:27:11 AM

Latest Report: Jul 4, 2015 at 5:56 AM


Visibility: 10 mi

Pressure: 29.94 "Hg

Humidity: 81%

Dew point: 59 °F

Location of New CityLocation

Historic Weather in New City — Graph

°F

New City temperature yesterday

Maximum temperature yesterday: 78 °F (at 3:56 PM)
Minimum temperature yesterday: 62 °F (at 5:56 AM)
Average temperature yesterday: 70 °F

Past Weeks' High & Low Weather Summary

 TemperatureHumidityPressure
High87 °F (Jun 23, 11:56 AM)100% (Jun 20, 8:56 PM)30.12 "Hg (Jun 20, 8:56 PM)
Low56 °F (Jun 27, 10:56 PM)33% (Jul 3, 3:56 PM)29.65 "Hg (Jun 28, 10:56 AM)
Average71 °F71%29.90 "Hg
* Reported Jun 19 4:56 AM — Jul 4 4:56 AM, New City, Weather by CustomWeather, © 2015

Note: Actual official high and low records may vary slightly from our data, if they occured in-between our weather recording intervals... More about our weather records

Advertising

New City weather history for previous 24 hours

 ConditionsComfort  
Time TempWeatherWind HumidityBarometerVisibility
4:56 AM
Sat, Jul 4
65 °FPassing clouds.No wind85%29.95 "Hg10 mi
3:56 AM65 °FPassing clouds.No wind85%29.96 "Hg10 mi
2:56 AM65 °FClear.No wind85%29.96 "Hg10 mi
1:56 AM65 °FClear.No wind85%29.98 "Hg10 mi
12:56 AM65 °FClear.3 mph85%29.98 "Hg10 mi
11:56 PM
Fri, Jul 3
66 °FClear.5 mph78%29.97 "Hg10 mi
10:56 PM66 °FClear.3 mph75%29.98 "Hg10 mi
9:56 PM67 °FClear.No wind76%29.97 "Hg10 mi
8:56 PM69 °FSunny.No wind66%29.95 "Hg10 mi
7:56 PM71 °FSunny.No wind57%29.96 "Hg10 mi
6:56 PM73 °FPassing clouds.7 mph44%29.96 "Hg10 mi
5:56 PM77 °FSunny.5 mph40%29.95 "Hg10 mi
4:56 PM77 °FSunny.6 mph37%29.95 "Hg10 mi
3:56 PM78 °FSunny.6 mph33%29.96 "Hg10 mi
2:56 PM77 °FSunny.6 mph37%29.97 "Hg10 mi
1:56 PM77 °FSunny.6 mph37%29.97 "Hg10 mi
12:56 PM75 °FSunny.3 mph39%29.98 "Hg10 mi
11:56 AM74 °FSunny.3 mph43%29.98 "Hg10 mi
10:56 AM73 °FSunny.9 mph46%29.97 "Hg10 mi
9:56 AM71 °FSunny.9 mph47%29.97 "Hg10 mi
8:56 AM68 °FSunny.10 mph55%29.97 "Hg10 mi
7:56 AM65 °FSunny.12 mph59%29.96 "Hg10 mi
6:56 AM63 °FSunny.9 mph63%29.95 "Hg10 mi
Weather by CustomWeather, © 2015

See weather overviewHow to use our weather pages